SCP
1 1 1 1 1 2 2 2 1 1 1 1 1 1 1 1 1 1 1 1 2 2 2 2 2 2 2 1 1 1 1 1 1 1 1 1 1 1 1 1 1 1 1
1 1 1 1 1 1 1 1 1 1 1 1 1 1 1 1 1 1 1 1 1 2 2 2 2 2 2 2 2 2 1 1 1 1 1 1 1 1 1 1 1 1 1
1 1 1 1 1 1 1 1 1 1 1 1 1 1 1 1 1 1 1 1 1 1 2 2 2 2 2 2 2 2 2 2 2 2 1 1 1 1 1 1 1 1 1
1 1 1 1 1 1 1 1 1 1 1 1 1 1 1 1 1 1 1 1 1 1 1 1 2 2 2 2 2 2 2 2 2 2 1 1 1 1 1 1 1 1 1
2 2 2 2 2 1 1 1 2 2 1 1 1 1 1 1 1 1 1 1 1 1 1 1 1 2 2 2 2 2 2 2 2 1 1 1 1 1 1 1 1 1 1
2 2 2 2 2 2 2 2 2 2 2 1 1 1 1 1 1 1 1 1 1 1 1 1 1 1 1 1 1 1 1 1 1 2 2 2 1 1 1 1 1 1 1
1 1 2 2 2 2 2 2 2 2 2 1 1 1 0 0 1 1 1 1 1 1 1 1 1 1 1 1 1 1 1 1 1 2 3 2 1 1 1 1 1 1 1
1 1 2 2 2 2 1 1 1 1 1 1 1 1 0 0 0 0 1 1 1 1 1 1 1 1 1 1 1 1 1 1 1 2 2 1 1 1 1 1 1 1 1
2 2 2 2 2 2 1 1 1 1 1 1 1 1 0 0 0 0 1 1 1 1 1 1 1 1 1 1 1 1 1 1 1 1 1 1 1 1 1 1 1 1 1
2 2 2 2 2 2 1 1 1 1 1 0 0 0 0 0 0 0 1 1 1 1 1 1 1 1 0 0 1 1 1 1 1 1 1 1 1 1 1 1 1 1 1
2 2 2 2 2 2 1 1 1 1 0 0 0 0 0 0 0 0 0 0 1 1 1 1 1 1 1 0 1 1 1 1 1 1 1 1 1 1 1 1 1 1 1
2 2 2 2 2 2 2 1 1 1 0 0 0 0 0 0 0 0 0 0 0 0 1 1 1 1 1 1 1 1 1 1 1 1 1 1 1 1 1 1 1 1 1
2 2 2 3 3 2 2 2 1 1 0 0 0 0 0 0 0 0 0 0 0 0 0 1 1 1 1 1 1 1 1 1 0 0 0 0 0 0 1 1 1 1 1
2 2 3 3 3 2 2 2 1 1 0 0 0 0 0 0 0 0 0 0 0 0 0 0 0 1 1 1 1 1 1 0 0 0 0 0 0 0 0 0 0 0 0
2 2 3 3 2 2 1 1 1 0 0 0 0 0 0 0 0 0 0 0 0 0 0 0 0 0 1 1 1 1 0 0 0 0 0 0 0 0 0 0 0 0 0
2 2 3 3 2 1 1 0 0 0 0 0 0 0 0 0 0 0 0 0 0 0 0 0 0 0 0 0 1 0 0 0 0 0 0 0 0 0 0 0 0 0 0
2 2 2 2 1 1 0 0 0 0 0 0 0 0 0 0 0 0 0 0 0 0 0 0 0 0 0 0 0 0 0 0 0 0 0 0 0 0 0 0 0 0 0
1 2 2 1 1 0 0 0 0 0 0 0 0 0 0 0 0 0 0 0 0 0 0 0 0 0 0 0 0 0 0 0 0 0 0 0 0 0 0 0 0 0 0
1 1 1 1 0 0 0 0 0 0 0 0 0 0 0 0 0 0 0 0 0 0 0 0 0 0 0 0 0 0 0 0 0 0 0 0 0 0 0 0 0 0 0
0 0 0 0 0 0 0 0 0 0 0 0 0 0 0 0 0 0 0 0 0 0 0 0 0 0 0 0 0 0 0 0 0 0 0 0 0 0 0 0 0 0 0
0 0 0 0 0 0 0 0 0 0 0 0 0 0 0 0 0 0 0 0 0 0 0 0 0 0 0 0 0 0 0 0 0 0 0 0 0 0 0 0 0 0 0
0 0 0 0 0 0 0 0 0 0 0 0 0 0 0 0 0 0 0 0 0 0 0 0 0 0 0 0 0 0 0 0 0 0 0 0 0 0 0 0 0 0 0
0 0 0 0 0 0 0 0 0 0 0 0 0 0 0 0 0 0 0 0 0 0 0 0 0 0 0 0 0 0 0 0 0 0 0 0 0 0 0 0 0 0 0
0 0 0 0 0 0 0 0 0 0 0 0 0 0 0 0 0 0 0 0 0 0 0 0 0 0 0 0 0 0 0 0 0 0 0 0 0 0 0 0 0 0 0
0 0 0 0 0 0 0 0 0 0 0 0 0 0 0 0 0 0 0 0 0 0 0 0 0 0 0 0 0 0 0 0 0 0 0 0 0 0 0 0 0 0 0
0 0 0 0 0 0 0 0 0 0 0 0 0 0 0 0 0 0 0 0 0 0 0 0 0 0 0 0 0 0 0 0 0 0 0 0 0 0 0 0 0 0 0
Wind_Speed
1 1 1 2 3 2 2 2 2 2 2 2 3 3 3 4 3 3 3 9 11 12 13 14 14 14 13 13 13 13 13 13 12 11 10 10 10 9 9 8 8 8 7
1 1 1 2 2 2 3 3 3 3 2 2 2 2 2 2 3 4 3 6 10 11 11 13 14 14 14 14 13 14 13 13 12 12 11 10 10 9 9 9 8 8 8
1 1 1 1 2 2 2 2 3 2 2 2 2 2 2 2 2 3 4 3 4 9 11 11 12 12 13 14 14 14 14 13 13 13 12 11 11 10 9 9 9 8 8
1 1 1 1 1 1 1 2 2 2 2 2 2 2 2 2 3 3 3 3 3 4 7 10 11 12 13 13 14 15 15 14 13 13 13 12 11 11 10 10 10 9 9
1 0 0 1 1 0 1 2 2 2 2 2 2 2 1 1 2 3 3 4 4 4 4 7 11 13 13 13 13 13 14 15 14 14 13 13 12 12 11 11 10 9 9
2 1 1 1 1 0 1 1 1 1 1 2 2 1 0 1 1 2 3 3 3 4 4 4 5 7 11 12 11 12 13 14 14 14 14 13 13 12 12 11 10 10 9
2 2 2 1 1 0 1 1 0 1 1 1 1 0 1 0 1 1 1 2 2 3 3 3 2 2 3 8 10 11 11 12 13 13 13 13 13 12 12 12 11 10 10
3 2 2 1 1 1 1 1 0 0 1 1 1 1 1 1 1 0 0 1 1 1 2 3 3 3 3 2 5 9 10 10 11 12 12 12 12 12 12 12 11 10 10
3 3 3 2 2 1 1 1 1 1 1 1 1 2 2 2 0 1 1 1 1 1 1 1 2 3 3 2 3 6 9 10 11 11 12 12 12 12 11 11 11 10 10
4 4 3 3 3 2 2 2 1 1 1 1 1 1 1 2 2 1 1 1 2 2 2 1 1 2 2 2 3 6 8 9 10 11 11 12 12 12 11 10 10 9 9
5 5 4 4 3 2 2 2 2 1 1 2 1 1 1 1 2 2 2 1 2 2 3 2 2 2 3 2 3 6 9 8 9 10 11 12 12 12 11 11 10 10 9
3 5 4 4 3 3 3 3 2 2 1 1 1 1 1 2 2 3 3 2 2 2 3 3 2 2 2 3 5 9 9 9 9 9 10 10 10 10 10 10 10 10 9
3 4 4 4 4 4 4 3 3 2 2 1 1 1 1 1 2 2 3 3 2 2 2 3 3 2 2 3 4 9 9 10 10 9 9 10 10 10 10 9 9 9 9
2 4 4 4 5 4 4 4 3 2 2 2 1 1 0 0 1 2 3 4 3 2 2 2 2 2 2 3 5 8 6 10 10 10 10 10 10 10 10 9 8 8 7
3 5 5 5 5 5 5 4 3 4 2 2 2 2 1 1 1 1 2 3 5 4 2 1 1 2 2 3 5 4 5 8 9 9 9 9 8 8 9 8 8 7 7
4 5 5 5 5 5 5 5 4 4 4 3 2 3 3 2 2 2 2 2 2 4 3 2 1 2 3 3 6 4 4 7 7 7 7 7 6 6 6 6 6 6 6
5 5 5 5 6 6 5 5 5 5 5 5 5 4 4 3 2 2 3 3 3 4 5 3 2 3 4 4 4 3 3 2 2 4 5 5 5 5 5 5 4 4 4
5 5 5 6 6 6 6 6 6 6 6 6 5 5 5 4 4 3 3 4 3 3 5 6 3 3 3 3 3 3 2 2 1 3 4 5 5 5 4 4 4 4 4
5 5 6 6 6 6 6 6 5 6 6 5 5 5 5 5 5 4 4 4 4 4 4 6 4 3 3 3 3 2 2 1 1 2 3 4 5 5 4 4 5 5 5
5 5 5 6 6 6 7 6 6 6 6 6 6 6 5 5 5 5 5 5 5 6 6 6 5 4 3 2 3 2 1 0 0 1 2 2 3 5 5 6 6 7 7
6 5 6 6 6 6 6 6 6 7 6 7 7 7 7 8 9 6 5 5 6 5 5 5 5 4 2 2 2 1 1 0 1 0 1 0 1 1 3 5 7 8 8
5 6 6 6 7 6 8 10 7 6 6 7 7 6 7 8 10 11 10 8 7 7 6 4 3 4 2 2 2 2 2 2 1 1 1 1 1 2 3 3 7 9 9
5 5 5 6 6 7 10 10 10 7 7 7 6 6 7 7 8 7 10 11 10 8 6 5 5 3 3 2 3 2 2 2 2 2 2 1 1 2 3 4 8 9 10
4 3 4 5 5 7 10 10 10 8 7 7 7 6 6 7 7 7 7 8 7 6 5 4 4 3 3 3 3 3 3 2 1 1 2 1 1 2 3 2 6 9 10
3 3 3 5 6 7 10 9 8 5 6 7 7 7 6 7 8 9 8 8 7 6 7 7 5 4 3 3 4 3 3 3 2 2 0 1 1 1 2 2 4 6 8
3 3 4 4 5 5 9 9 7 4 5 4 5 6 9 8 8 8 6 6 6 3 3 4 5 4 3 3 3 3 3 3 1 1 2 1 0 0 2 3 2 2 3
Wind_Direction
179 174 187 211 213 207 207 210 215 223 233 237 237 232 219 200 196 205 207 202 197 197 197 193 192 190 189 188 186 181 178 175 173 170 166 163 160 156 152 150 146 143 140
170 154 211 225 230 222 206 209 212 214 224 222 237 233 223 210 203 206 207 202 200 200 202 200 198 194 193 194 191 185 181 177 175 173 169 166 161 157 155 152 149 146 142
142 149 214 230 240 230 208 204 208 196 219 228 232 236 213 202 197 208 203 194 198 204 205 204 200 196 196 197 195 191 185 181 177 174 171 166 162 159 157 153 149 145 142
80 124 217 235 247 229 209 209 204 205 218 218 231 236 206 190 198 202 202 195 194 200 205 205 204 200 200 198 196 193 189 185 181 177 173 168 164 160 156 151 147 144 142
62 61 281 287 267 236 238 232 193 190 207 220 227 232 221 187 203 201 199 197 197 200 199 207 210 207 204 200 197 194 192 187 183 180 174 169 164 160 156 152 149 147 144
41 32 13 353 1 2 287 273 214 192 203 217 228 238 244 241 207 200 203 198 198 202 200 199 204 208 200 196 193 193 193 189 185 180 174 169 163 158 154 150 148 144 141
32 41 19 7 16 13 291 299 252 196 224 185 124 357 336 16 182 213 205 184 199 199 189 182 181 174 186 183 183 185 186 185 183 177 170 163 157 155 153 151 147 143 141
20 41 40 17 7 1 0 354 344 220 232 177 155 153 270 320 351 68 93 175 199 184 171 172 168 158 158 165 178 176 174 170 171 168 164 159 155 153 151 148 145 141 140
23 28 37 29 12 14 345 327 332 243 238 235 184 165 176 210 251 39 34 45 47 82 123 150 147 143 141 144 159 166 161 156 158 159 155 153 151 151 151 148 144 141 139
23 26 28 25 16 12 352 326 348 290 248 245 254 233 200 165 164 162 63 47 50 56 54 74 106 109 115 121 121 133 140 145 149 149 150 153 154 152 151 149 147 145 143
18 22 24 22 14 4 352 333 333 321 278 238 222 214 209 192 170 160 165 122 59 38 40 47 62 82 89 99 113 123 125 130 137 143 145 145 145 147 146 145 144 142 141
9 12 19 16 9 2 356 345 342 332 314 289 260 216 193 186 179 163 156 145 110 53 41 46 61 73 83 87 113 119 120 123 128 132 137 139 138 137 141 143 144 144 142
9 1 9 8 3 357 358 359 4 356 339 324 295 251 224 215 171 151 144 141 119 81 50 41 40 65 91 89 103 111 109 111 115 118 122 126 132 134 133 134 134 135 134
2 358 9 11 7 5 4 7 12 358 1 3 350 316 232 263 146 145 146 146 136 104 70 65 40 49 79 89 96 100 104 108 108 108 109 112 116 122 125 123 121 124 126
11 16 17 17 12 11 11 15 19 4 11 27 19 31 49 14 106 114 131 150 150 150 139 115 83 57 78 87 102 97 98 108 110 113 112 112 114 117 119 119 122 125 123
18 22 20 20 19 17 17 23 19 12 27 25 28 40 38 28 56 74 108 120 122 132 131 127 105 109 108 111 107 95 98 110 114 120 124 128 131 132 136 136 133 133 134
24 27 23 26 29 26 21 26 25 27 33 32 30 44 44 45 60 68 80 87 91 103 116 103 79 102 105 114 107 93 94 94 104 130 143 150 152 152 149 142 142 150 157
25 29 31 33 34 30 25 31 31 29 35 36 33 41 39 53 62 68 84 93 96 96 121 122 110 100 93 111 106 106 110 123 133 164 174 171 166 165 164 167 179 193 192
32 36 39 38 33 27 27 30 36 34 35 36 36 43 40 56 63 68 83 91 94 94 97 117 116 98 88 100 95 90 91 65 181 185 186 189 190 193 195 202 212 215 217
43 41 40 39 35 30 28 30 38 39 37 36 38 42 42 52 66 75 83 88 94 95 99 107 109 103 98 94 99 102 81 32 254 207 187 183 194 206 214 219 224 226 226
48 43 43 38 32 32 26 33 39 46 44 42 40 41 47 57 64 71 86 95 102 104 104 107 108 105 106 115 131 140 134 70 357 70 88 231 186 213 229 232 231 231 230
45 46 44 43 38 31 28 41 49 48 45 47 45 41 47 49 57 66 76 83 101 114 115 111 113 124 134 139 135 141 132 108 340 307 125 262 172 241 246 234 234 232 232
51 49 41 44 39 24 33 42 49 56 52 49 47 44 49 46 54 67 69 67 67 80 102 123 126 139 149 168 148 131 135 149 193 214 127 258 263 253 252 243 236 234 233
54 50 43 41 41 27 34 47 56 57 55 50 48 51 56 45 50 68 74 65 58 58 75 94 118 134 150 157 151 151 153 122 46 6 122 170 276 266 271 262 252 240 238
54 48 47 45 45 25 31 49 63 60 56 47 44 46 54 57 56 71 76 71 60 46 60 78 96 108 119 135 137 104 89 86 51 320 303 145 257 295 295 283 275 258 247
65 56 46 39 46 36 32 49 63 67 59 45 35 35 45 58 59 68 78 80 70 43 45 49 49 44 52 57 91 129 139 126 126 290 277 128 226 33 325 300 287 282 269